Location: Unspecified
(0.0000°N, 0.0000°E)
Time: 11:15:20
(UTC+00:00)

Transit 4A - Pass Details

Date: 26 November 2019
Orbit: 870 x 975 km, 66.8° (Epoch: 13 December)

Event Time Altitude Azimuth Distance (km) Brightness Sun altitude
Rises 17:45:32 0° 180° (S) 3,667 11.3 0.4°
Reaches altitude 10° 17:48:26 10° 169° (S) 2,719 10.5 -0.3°
Maximum altitude 17:53:53 30° 110° (ESE) 1,667 8.9 -1.5°
Drops below altitude 10° 17:59:16 10° 51° (NE) 2,689 9.7 -2.8°
Sets 18:02:07 0° 41° (NE) 3,620 10.4 -3.5°
